Location: Hermaringen
(48.5952°N, 10.2585°E)
Time: 07:19:45
(UTC+00:00)

Altair - Pass Details

Date: 18 February 2026
Orbit: 1502 x 1682 km, 47.2° (Epoch: 9 March)

Event Time Altitude Azimuth Distance (km) Brightness Sun altitude
Rises 11:14:52 0° 289° (WNW) 4,755 9.9 29.7°
Reaches altitude 10° 11:18:44 10° 276° (W) 3,797 9.6 29.8°
Maximum altitude 11:25:39 23° 229° (SW) 2,957 9.8 29.8°
Drops below altitude 10° 11:32:45 10° 183° (S) 3,884 11.3 29.9°
Sets 11:36:48 0° 169° (S) 4,890 11.3 29.9°
